Weather Service Report


891 
ASUS45 KPSR 251010
RWRAZ 

ARIZONA HOURLY REGIONAL WEATHER ROUNDUP
NATIONAL WEATHER SERVICE PHOENIX AZ
300 AM MST MON JUL 25 2016

NOTE: FAIR INDICATES FEW OR NO CLOUDS BELOW 12,000 FEET WITH NO
SIGNIFICANT WEATHER AND/OR OBSTRUCTIONS TO VISIBILITY.

AZZ001>003-036-251100-
NORTHWEST ARIZONA
  
CITY           SKY/WX    TMP DP  RH WIND       PRES   REMARKS
BULLHEAD CITY  CLEAR     95  59  30 S7        29.80R                  
KINGMAN        CLEAR     76  51  41 SE3       30.03S                  
$$

AZZ004>008-015-016-018-251100-
NORTH CENTRAL ARIZONA
  
CITY           SKY/WX    TMP DP  RH WIND       PRES   REMARKS
GRAND CANYON   CLEAR     54  49  83 CALM      30.31R                  
WILLIAMS       CLEAR     61  50  67 SE7       30.38R                  
PRESCOTT       CLEAR     72  54  53 SW6       30.17F                  
FLAGSTAFF      CLEAR     56  46  69 CALM      30.33S                  
PAYSON         PTCLDY    72  46  40 N3        30.20R                  
PAGE           CLEAR     79  44  28 SW5       30.09S                  
$$

AZZ009>014-017-251100-
NORTHEAST ARIZONA
  
CITY           SKY/WX    TMP DP  RH WIND       PRES   REMARKS
WINSLOW        PTCLDY    70  49  47 E6        30.18R                  
SAINT JOHNS    CLOUDY    70  53  54 CALM      30.24R                  
WINDOW ROCK    CLOUDY    67  52  58 W6        30.29F                  
SHOW LOW       MOCLDY    68  45  42 S13       30.29S                  
$$

AZZ023-251100-
GREATER PHOENIX AREA
  
CITY           SKY/WX    TMP DP  RH WIND       PRES   REMARKS
PHOENIX        PTCLDY    92  63  38 SE13      29.88R                  
BUCKEYE        MOCLDY    86  63  45 SW3       29.90R                  
LUKE AFB       CLEAR     89  63  42 S17       29.86R                  
DEER VALLEY    CLEAR     87  62  43 S5        29.90R                  
SCOTTSDALE     PTCLDY    89  62  40 S9        29.93R                  
MESA-GATEWAY   MOCLDY    90  61  37 SW9       29.92F                  
$$

AZZ027-028-251100-
SOUTHWEST MARICOPA COUNTY AND PINAL COUNTY
  
CITY           SKY/WX    TMP DP  RH WIND       PRES   REMARKS
CASA GRANDE    MOCLDY    90  59  35 S8        29.94F                  
GILA BEND      FAIR      87  60  38 W2        29.87R                  
$$

AZZ503-504-507>509-251100-
SOUTHEAST ARIZONA
  
CITY           SKY/WX    TMP DP  RH WIND       PRES   REMARKS
TUCSON         CLOUDY    84  58  40 S10       30.04F                  
DAVIS-MONTHAN  CLOUDY    82  58  43 S6        30.03S                  
NOGALES        CLOUDY    72  58  61 E5        30.12F                  
SIERRA VISTA   CLOUDY    66  60  80 CALM      30.18F                  
DOUGLAS          N/A    N/A N/A N/A MISG      30.13F                  
SAFFORD        CLOUDY    80  55  42 E17G26    30.04S                  
$$

AZZ020-021-025-026-031-251100-
SOUTHWEST ARIZONA
  
CITY           SKY/WX    TMP DP  RH WIND       PRES   REMARKS
YUMA           CLEAR     85  71  63 S7        29.82R                  
$$

CAZ031-033-041-043-047-048-061-251100-
SOUTHERN CALIFORNIA
  
CITY           SKY/WX    TMP DP  RH WIND       PRES   REMARKS
DOWNTOWN L.A.  CLEAR     70  66  87 CALM      29.92R                  
L.A. AIRPORT   PTCLDY    70  65  84 CALM      29.92S                  
SAN DIEGO      MOCLDY    68  66  93 NW3       29.92F                  
BURBANK        CLEAR     71  66  84 SE6       29.93S                  
ONTARIO        PTCLDY    73  60  63 SW6       29.94S                  
RIVERSIDE      CLEAR     73  62  68 CALM      29.94S                  
PALM SPRINGS   PTCLDY    89  52  28 SE5       29.86S                  
EL CENTRO NAS  MOCLDY    85  74  69 SE3       29.80R                  
IMPERIAL       PTCLDY    87  77  72 SE9       29.78S                  
BLYTHE         PTCLDY    87  68  52 S12       29.81S                  
NEEDLES        CLEAR     95  61  32 SW12      29.81R                  
$$

NVZ020-UTZ003-251100-
SOUTHERN NEVADA-UTAH
  
CITY           SKY/WX    TMP DP  RH WIND       PRES   REMARKS
LAS VEGAS      PTCLDY    93  31  11 S9        29.82S                  
SALT LAKE CITY PTCLDY    72  39  30 E7        30.04R                  
$$

NMZ009-TXZ055-251100-
NEW MEXICO-WEST TEXAS
  
CITY           SKY/WX    TMP DP  RH WIND       PRES   REMARKS
ALBUQUERQUE    CLOUDY    72  55  55 NW5       30.23R                  
EL PASO        MOCLDY    85  52  32 N9        30.05R                  
$$


........................KEY........................
SKY/WX - SKY CONDITION/WEATHER
TMP    - TEMPERATURE IN FAHRENHEIT
DP     - DEW POINT IN FAHRENHEIT
RH     - RELATIVE HUMIDITY IN PERCENT
WIND   - DIRECTION AND SPEED IN MILES PER HOUR (MPH)
VRB    - VARIABLE WIND DIRECTION
PRES   - MEAN SEA LEVEL PRESSURE IN INCHES OF MERCURY
         F - FALLING PRESSURE   R - RISING PRESSURE
         S - STEADY PRESSURE
VSB    - VISIBILITY IN MILES
HX     - HEAT INDEX IN FAHRENHEIT
WCI    - WIND CHILL INDEX IN FAHRENHEIT
TC     - TEMPERATURE IN CELSIUS WHICH IS ALSO KNOWN AS
         TEMPERATURE IN CENTIGRADE
AFB    - AIR FORCE BASE
         LUKE AFB IS LUKE AIR FORCE BASE
         DAVIS-MONTHAN IS DAVIS-MONTHAN AIR FORCE BASE
NAS    - NAVAL AIR STATION
         EL CENTRO NAS IS EL CENTRO NAVAL AIR STATION
N/A    - NOT AVAILABLE

  

Return to Home page


Western Regional Climate Center, wrcc@dri.edu